Showing default

MIDAS 6 (FTV 1169), 574

Orbit data source: Space-Track

MIDAS 6 (FTV 1169), 574 is a payload satellite owned by USAF SSD (US) in LEO that was launched on Thu, 09 May 1963 UTC via an ATLAS AGENA B launch vehicle from the Air Force Western Test Range (AFWTR). Payloads include a variety of satellites, spacecraft, and rockets equipped with specific instruments for various scientific and technological missions. These include communications satellites like Starlink; space stations such as the ISS; scientific satellites like the Hubble; Earth observation satellites from companies like Planet Labs, Umbra, and HawkEye 360; GPS; miniature CubeSats for education and research; and military/defense satellites.

Loading next visibility...
MIDAS 6 (FTV 1169) details
Identifier
574, 1963-014A
Orbit
LEO
Last TLE update11 hours ago
Origin
Flag of USUSAF SSD (US)
ManufacturerLMSC
MissionDefense Early Warn
Bus & MotorMIDAS, Unknown motor
Mass~1,540 kg wet, ~840 kg dry
Launch date (UTC)
1963-05-09 (62 years ago)
Launch vehicle
ATLAS AGENA B
Launch site
Air Force Western Test Range (AFWTR)
Object type
Payload
Rocket body
Debris
Shape & HBRCyl + Cone, 2 m
Radar Cross Section3.240 m², Large (>1 m²)

Expand to show TLE details & history

TLE from 11 hours ago
0 MIDAS 6 (FTV 1169)
1   574U 63014A   24356.07177156  .00000003  00000-0  67849-4 0  9995
2   574  87.3216 247.3263 0031452 298.6115  61.1577  8.65274845171060
Epoch: 2024-12-21T01:43Z
Definitive object data (Epoch: 2024-12-21T01:43:21.062Z)
Latitude-0.00002°
Longitude131.36035°
Altitude3,631.181 km
Speed6.316 km/s
True Right ascension16h 29m 18s
True Declination0° 00' 00"
Sunlit
Object was in daylight at TLE epoch
Visualization TLE readout
Latitude-68.92004°
Longitude124.37511°
Altitude3,638.703 km
Speed6.319 km/s
Apparent Right ascension20h 28m 41s
Apparent Declination-69° 26' 32"
Sunlit
Object is in daylight
Visualization observer readout
Local Sidereal Time11:19:15
Azimuth156.702° SSE
Elevation-53.027°
Doppler factor1
Orbital elements
Apogee altitude3,673.465 km
Perigee altitude3,610.434 km
Semi-major axis10,020.087 km
Eccentricity0.0031452
Inclination87.3216°
RAAN247.3263°
Arg. of periapsis298.6115°
True anomaly61.474°
Mean anomaly61.1577°
Eccentric anomaly61.31579°
Mean motion2.16389 °/min
BSTAR0.000067849
Orbital period166.37 mins
Loading maneuver chart data...

MIDAS 6 (FTV 1169) Visibility forecast

Observer location: undefined°, undefined

Span
Click to sort rows by Start time (UTC) header in descending order
Start Az.
Max El. time (UTC)
Max El. Az.
Max El.
End time (UTC)
End Az.
32 mins2024-12-21 15:39:29.201Z135.173° SSE2024-12-21 15:55:29.201Z73.105° E34.451°2024-12-21 16:11:29.201Z10.336° NNE
35 mins2024-12-21 18:24:29.201Z204.057° SW2024-12-21 18:41:29.201Z283.788° WNW40.123°2024-12-21 18:59:29.201Z358.029° N
5 mins2024-12-21 21:34:29.201Z312.935° NW2024-12-21 21:36:29.201Z319.524° NNW10.529°2024-12-21 21:39:29.201Z329.347° NNW
35 mins2024-12-22 03:28:29.201Z4.934° NNE2024-12-22 03:45:29.201Z74.971° E36.544°2024-12-22 04:03:29.201Z148.261° SSE
34 mins2024-12-22 06:15:29.201Z351.586° N2024-12-22 06:32:29.201Z280.801° WNW38.408°2024-12-22 06:49:29.201Z214.459° SW
|